Change the Weather History Date:

Tuesday, February 4, 2014

  Actual Average Record
Temperature  
Mean Temperature 26 °F 38 °F  
Max Temperature 30 °F 48 °F 78 °F (1962)
Min Temperature 22 °F 28 °F -7 °F (1912)
Degree Days  
Heating Degree Days 39 27  
Month to date heating degree days 150 108  
Since 1 July heating degree days 2833 2594  
Cooling Degree Days 0 0  
Month to date cooling degree days 0 0  
Year to date cooling degree days 0 0  
Moisture  
Dew Point 24 °F    
Average Humidity 84    
Maximum Humidity 100    
Minimum Humidity 68    
Precipitation  
Precipitation 0.58 in 0.09 in 1.11 in (1960)
Month to date precipitation 0.88 0.35  
Year to date precipitation 1.91 2.91  
Snow  
Snow 1.50 in 0.20 in 3.30 in (2011)
Month to date snowfall 5.8 0.8  
Since 1 July snowfall 15.8 6.8  
Snow Depth 4.00 in    
Sea Level Pressure  
Sea Level Pressure 29.99 in    
Wind  
Wind Speed 6 mph (East)    
Max Wind Speed 15 mph    
Max Gust Speed 20 mph    
Visibility 3 miles    
Events Fog , Rain , Snow    
T = Trace of Precipitation, MM = Missing Value Source: NWS Daily Summary

Daily Weather History Graph

Daily Weather History Graph

Search for Another Location

Airport or City:

Trip Planner

Search our weather history database for the weather conditions in past years. The results will help you decide how hot, cold, wet, or windy it might be!

Date:

Astronomy

Feb. 04, 2014 Rise Set
Actual Time 7:11 AM CST 5:42 PM CST
Civil Twilight 6:44 AM CST 6:09 PM CST
Nautical Twilight 6:13 AM CST 6:39 PM CST
Astronomical Twilight 5:43 AM CST 7:10 PM CST
Moon 10:00 AM CST (2/4) 11:25 PM CST (2/4)
Length of Visible Light 11h 24m
Length of Day
10h 31m
Waxing Crescent, 29% of the Moon is Illuminated
Feb 4
Waxing Crescent
Feb 6
First Quarter
Feb 14
Full
Feb 22
Last Quarter
Mar 1
New

Hourly Weather History & Observations

Time (CST) Temp. Windchill Dew Point Humidity Pressure Visibility Wind Dir Wind Speed Gust Speed Precip Events Conditions
12:53 AM 24.1 °F 14.4 °F 16.0 °F 71% 30.21 in 10.0 mi ESE 9.2 mph - N/A   Clear
1:53 AM 23.0 °F 12.4 °F 14.0 °F 68% 30.20 in 10.0 mi ESE 10.4 mph - N/A   Clear
2:53 AM 23.0 °F 13.9 °F 15.1 °F 72% 30.16 in 10.0 mi East 8.1 mph - N/A   Partly Cloudy
3:53 AM 23.0 °F 13.1 °F 15.1 °F 72% 30.16 in 10.0 mi ESE 9.2 mph - N/A   Mostly Cloudy
4:53 AM 23.0 °F 13.1 °F 16.0 °F 74% 30.14 in 10.0 mi ESE 9.2 mph - N/A   Overcast
5:53 AM 23.0 °F 17.0 °F 17.1 °F 78% 30.15 in 10.0 mi ESE 4.6 mph - N/A   Overcast
6:53 AM 23.0 °F 15.8 °F 17.1 °F 78% 30.15 in 10.0 mi ESE 5.8 mph - N/A   Overcast
7:20 AM 23.0 °F - 17.6 °F 80% 30.11 in 1.8 mi Calm Calm - 0.00 in Snow Light Snow
7:26 AM 23.0 °F 15.8 °F 19.4 °F 86% 30.10 in 0.8 mi NE 5.8 mph - 0.00 in Snow Light Snow
7:39 AM 23.0 °F 17.0 °F 19.4 °F 86% 30.09 in 1.5 mi NE 4.6 mph - 0.00 in Snow Light Snow
7:44 AM 23.0 °F 14.7 °F 19.4 °F 86% 30.07 in 2.0 mi ENE 6.9 mph - 0.00 in Snow Light Snow
7:53 AM 23.0 °F 17.0 °F 19.9 °F 88% 30.13 in 2.5 mi East 4.6 mph - 0.00 in Snow Light Snow
8:08 AM 23.0 °F 13.1 °F 19.4 °F 86% 30.08 in 0.8 mi East 9.2 mph - 0.00 in Snow Light Snow
8:18 AM 23.0 °F 13.9 °F 19.4 °F 86% 30.08 in 0.8 mi ESE 8.1 mph - 0.00 in Snow Light Snow
8:41 AM 23.0 °F 14.7 °F 19.4 °F 86% 30.05 in 1.8 mi East 6.9 mph - 0.00 in Snow Light Snow
8:45 AM 23.0 °F 14.7 °F 19.4 °F 86% 30.05 in 2.5 mi East 6.9 mph - 0.00 in Snow Light Snow
8:53 AM 23.0 °F 11.7 °F 19.9 °F 88% 30.08 in 3.0 mi East 11.5 mph - 0.00 in Snow Light Snow
9:05 AM 24.8 °F 14.6 °F 19.4 °F 80% 30.02 in 3.0 mi East 10.4 mph 18.4 mph 0.00 in Snow Light Snow
9:13 AM 24.8 °F 16.1 °F 19.4 °F 80% 30.04 in 3.0 mi East 8.1 mph - 0.00 in Snow Light Snow
9:33 AM 24.8 °F 15.3 °F 21.2 °F 86% 29.99 in 2.0 mi East 9.2 mph - 0.00 in Snow Light Snow
9:43 AM 24.8 °F 15.3 °F 21.2 °F 86% 29.99 in 4.0 mi East 9.2 mph - 0.00 in   Overcast
9:53 AM 25.0 °F 16.3 °F 21.9 °F 88% 30.04 in 4.0 mi East 8.1 mph - 0.00 in Rain Light Freezing Rain
10:17 AM 24.8 °F 16.1 °F 23.0 °F 93% 30.00 in 3.0 mi ESE 8.1 mph - 0.00 in   Overcast
10:26 AM 24.8 °F 15.3 °F 23.0 °F 93% 30.00 in 2.5 mi ESE 9.2 mph - 0.00 in Rain Light Freezing Rain
10:53 AM 26.1 °F 15.6 °F 23.0 °F 88% 30.03 in 2.5 mi ESE 11.5 mph 19.6 mph N/A Rain Light Freezing Rain
11:12 AM 26.6 °F 16.8 °F 23.0 °F 86% 29.98 in 2.5 mi ESE 10.4 mph - N/A   Overcast
11:30 AM 26.6 °F 16.8 °F 24.8 °F 93% 29.96 in 1.5 mi ESE 10.4 mph - N/A Snow Light Snow
11:37 AM 26.6 °F 17.5 °F 24.8 °F 93% 29.95 in 2.0 mi East 9.2 mph - N/A Rain Light Freezing Rain
11:53 AM 26.1 °F 15.0 °F 24.1 °F 92% 29.99 in 2.5 mi ESE 12.7 mph - N/A Rain Light Freezing Rain
12:03 PM 26.6 °F 16.8 °F 24.8 °F 93% 29.93 in 2.0 mi East 10.4 mph - 0.00 in   Overcast
12:14 PM 26.6 °F 19.1 °F 24.8 °F 93% 29.93 in 2.0 mi ESE 6.9 mph - 0.00 in Rain Light Freezing Rain
12:25 PM 26.6 °F 18.2 °F 24.8 °F 93% 29.94 in 1.8 mi ESE 8.1 mph - 0.00 in Rain Light Freezing Rain
12:30 PM 26.6 °F 18.2 °F 24.8 °F 93% 29.93 in 2.0 mi ESE 8.1 mph - 0.00 in Rain Light Freezing Rain
12:48 PM 26.6 °F 18.2 °F 24.8 °F 93% 29.91 in 1.8 mi East 8.1 mph - N/A Snow Light Snow
12:53 PM 27.0 °F 18.7 °F 25.0 °F 92% 29.95 in 1.8 mi East 8.1 mph - N/A Snow Light Snow
1:28 PM 28.4 °F 22.2 °F 26.6 °F 93% 29.89 in 2.5 mi ENE 5.8 mph - N/A Snow Light Snow
1:53 PM 28.0 °F 20.8 °F 26.1 °F 92% 29.92 in 6.0 mi ESE 6.9 mph - N/A   Overcast
2:29 PM 28.4 °F 19.7 °F 26.6 °F 93% 29.86 in 2.5 mi ESE 9.2 mph - 0.00 in Snow Light Snow
2:37 PM 28.4 °F 20.4 °F 26.6 °F 93% 29.87 in 4.0 mi East 8.1 mph - 0.00 in   Overcast
2:45 PM 28.4 °F 21.2 °F 26.6 °F 93% 29.87 in 1.8 mi ESE 6.9 mph - 0.00 in Snow Light Snow
2:53 PM 28.9 °F 22.8 °F 26.1 °F 89% 29.91 in 1.2 mi ESE 5.8 mph - 0.00 in Snow Light Snow
3:27 PM 28.4 °F 22.2 °F 26.6 °F 93% 29.86 in 2.5 mi ESE 5.8 mph - 0.00 in   Overcast
3:34 PM 28.4 °F 22.2 °F 26.6 °F 93% 29.86 in 4.0 mi ESE 5.8 mph - 0.00 in   Overcast
3:53 PM 28.9 °F 23.9 °F 27.0 °F 92% 29.90 in 3.0 mi ESE 4.6 mph - 0.00 in   Overcast
4:27 PM 28.4 °F 24.6 °F 26.6 °F 93% 29.85 in 2.5 mi ESE 3.5 mph - N/A   Overcast
4:53 PM 28.9 °F - 28.0 °F 96% 29.91 in 2.5 mi Calm Calm - N/A   Overcast
5:09 PM 28.4 °F 23.3 °F 28.4 °F 100% 29.86 in 1.8 mi ESE 4.6 mph - N/A   Overcast
5:53 PM 28.9 °F - 28.0 °F 96% 29.91 in 1.5 mi Calm Calm - N/A   Overcast
6:53 PM 28.9 °F - 28.0 °F 96% 29.92 in 0.8 mi Calm Calm - N/A   Overcast
7:00 PM 28.4 °F - 28.4 °F 100% 29.89 in 0.8 mi Calm Calm - N/A   Mist
7:53 PM 28.9 °F 25.2 °F 28.0 °F 96% 29.93 in 0.5 mi ENE 3.5 mph - N/A Fog Light Freezing Fog
8:07 PM 28.4 °F - 28.4 °F 100% 29.90 in 0.8 mi Calm Calm - N/A   Mist
8:53 PM 28.9 °F - 28.9 °F 100% 29.95 in 0.8 mi Calm Calm - N/A   Mist
9:27 PM 28.4 °F - 28.4 °F 100% 29.92 in 0.5 mi Calm Calm - N/A Fog Light Freezing Fog
9:53 PM 28.9 °F - 28.9 °F 100% 29.96 in 0.5 mi Calm Calm - N/A Fog Light Freezing Fog
10:04 PM 28.4 °F 24.6 °F 28.4 °F 100% 29.92 in 0.8 mi West 3.5 mph - 0.00 in Snow Light Snow
10:28 PM 28.4 °F - 28.4 °F 100% 29.92 in 1.0 mi Calm Calm - 0.00 in Snow Light Snow
10:53 PM 28.9 °F 25.2 °F 28.9 °F 100% 29.96 in 1.8 mi WNW 3.5 mph - 0.00 in   Overcast
11:09 PM 30.2 °F - 28.4 °F 93% 29.93 in 2.0 mi Calm Calm - N/A   Overcast
11:27 PM 30.2 °F 23.4 °F 28.4 °F 93% 29.94 in 3.0 mi Variable 6.9 mph - N/A   Overcast
11:39 PM 30.2 °F 21.9 °F 28.4 °F 93% 29.94 in 5.0 mi WNW 9.2 mph - N/A   Overcast
11:53 PM 30.0 °F 23.2 °F 28.9 °F 96% 29.98 in 4.0 mi WNW 6.9 mph - N/A   Overcast